Terminal Aerodrome Forecast
Issued by NWS Denver/Boulder, CO

Home | Current Version | Previous Version | Text Only | Print | Product List | Glossary On
Versions: 1 2 3 4 5 6 7 8 9 10 11 12 13 14 15 16 17 18 19 20 21 22 23 24 25 26 27 28 29 30 31 32 33 34 35 36 37 38 39 40 41 42 43 44 45 46 47 48 49 50
637
FTUS45 KBOU 260325 AAC
TAFDEN
TAF AMD
KDEN 260325Z 2603/2706 22006KT P6SM FEW040 BKN100 OVC140
     FM260600 28009KT P6SM SCT080 BKN140
     FM261200 36010KT P6SM BKN030 OVC090
     FM262000 04010KT P6SM BKN050 OVC070
     FM262300 05011KT P6SM VCSH SCT060 BKN090
     FM270300 15010KT P6SM SCT050 BKN060=

USA.gov is the U.S. government's official web portal to all federal, state and local government web resources and services.